Regional Weather Roundup
Issued by NWS Charleston, SC

Current Version | Previous Version | Graphics & Text | Print | Product List | Glossary On
Versions: 1 2 3 4 5 6 7 8 9 10 11 12 13 14 15 16 17 18 19 20 21 22 23 24 25 26 27 28 29 30 31 32 33 34 35 36 37 38 39 40 41 42 43 44 45 46 47 48 49 50
000
ASUS42 KCHS 291711
RWRCHS
REGIONAL WEATHER ROUNDUP
NATIONAL WEATHER SERVICE CHARLESTON SC
1200 PM EST THU JAN 29 2015

NOTE: "FAIR" INDICATES FEW OR NO CLOUDS BELOW 12,000 FEET WITH NO
SIGNIFICANT WEATHER AND/OR OBSTRUCTIONS TO VISIBILITY.

NOT ALL STATIONS ARE QUALITY CONTROLLED BY THE NATIONAL
WEATHER SERVICE. USE DATA WITH CAUTION...ESPECIALLY
DEWPOINT OBSERVATIONS.

SCZ027-030-031-034>040-042>050-291800-
...SOUTHEAST SOUTH CAROLINA...

CITY           SKY/WX    TMP DP  RH WIND       PRES   REMARKS
N CHARLESTON   PTSUNNY   54  30  40 S7        30.35F
WATERFRONT PRK NOT AVBL
MOUNT PLEASANT LGT RAIN N/A N/A N/A S7        30.34F
PINOPOLIS        N/A     50  27  40 VRB2      30.27F
MONCKS CORNER  FAIR      54  27  35 S6        30.34F
SUMMERVILLE    FAIR      52  30  43 SW3       30.35F
BEAUFORT MCAS  PTSUNNY   55  38  52 SE7       30.36F
BEAUFORT ARPT  FAIR      54  39  58 S3        30.35F
HILTON HEAD IS MOSUNNY   55  37  50 CALM      30.37F
WALTERBORO     MOSUNNY   54  18  24 S9        30.35F
ALLENDALE      FAIR      52  23  32 S7        30.33F

...SOUTHERN MIDLANDS AND PEE DEE...

CITY           SKY/WX    TMP DP  RH WIND       PRES   REMARKS
GEORGETOWN     NOT AVBL
KINGSTREE      NOT AVBL
ORANGEBURG     MOSUNNY   51  21  30 SW7       30.33F
BARNWELL       FAIR      52  27  37 S7        30.33F
AIKEN          FAIR      50  27  40 SW8       30.35F
MANNING        FAIR      50  27  40 SW8       30.34F
COLUMBIA       PTSUNNY   51  23  33 S10       30.31F
SUMTER         MOSUNNY   51  21  31 S6        30.30F
FLORENCE       PTSUNNY   49  16  26 S9        30.32F
MYRTLE BEACH   SUNNY     48  27  43 SE12      30.36F
N MYRTLE BEACH SUNNY     46  24  42 SE6       30.33F

$$

GAZ063-065-086>088-099>101-113>116-118-119-134>141-150-291800-
...SOUTHEAST GEORGIA...

CITY           SKY/WX    TMP DP  RH WIND       PRES   REMARKS
SAVANNAH ARPT  CLOUDY    56  35  45 VRB5      30.36F
HUNTER AAF     MOSUNNY   57  40  52 S7        30.33F
FORT STEWART   SUNNY     56  38  50 VRB2      30.34F
STATESBORO     MOSUNNY   54  35  48 S12       30.32F
SYLVANIA       MOSUNNY   53  32  45 S7        30.33F
CLAXTON        FAIR      54  37  54 S7        30.35F

...CSRA...CENTRAL AND FAR SOUTHEAST GEORGIA...

CITY           SKY/WX    TMP DP  RH WIND       PRES   REMARKS
THOMSON        CLOUDY    51  27  40 S8        30.35F
AUGUSTA-BUSH   CLOUDY    50  22  33 SW8       30.33F
AUGUSTA-DANIEL CLOUDY    50  23  34 S9        30.32F
SWAINSBORO     FAIR      54   9  16 S8        30.33F
VIDALIA        PTSUNNY   54  32  43 S8        30.33F
EASTMAN        FAIR      54  29  38 S7        30.36F
HAZLEHURST     FAIR      55  32  40 S6        30.32F
ALMA           MOSUNNY   56  37  49 S5        30.35F
WAYCROSS       MOSUNNY   60  41  49 SW6       30.34F
JESUP          FAIR      59  43  55 CALM      30.35F
BAXLEY         FAIR      57  37  47 S8        30.34F
BRUNSWICK      SUNNY     59  41  51 SE6       30.35F
SAINT SIMONS   SUNNY     57  40  52 E6        30.35F

$$

SCZ027-028-034-036>038-045-046-048>050-GAZ119-141-291800-
...LAKE AND SUPPLEMENTAL COASTAL OBSERVATIONS...

STATION/POSITION TIME  TEMP    WIND        PRES    WAVE   SWELL
                       AIR SEA DIR/SP/G            HT/PER HT/PER/DIR
                 (UTC) (F)     (DEG/KT/KT) (MB)    (FT/S) (FT/S/D)
UPR LAKE MARION  NOT AVBL
WINYAH BAY       NOT AVBL
LAKE MURRAY      1600   46     210/  7/  9 1027.1R
ACE BASIN NERRS  NOT AVBL
FORT PULASKI     1612   49 52   50/  4/  5 1029.0R
SAPELO ISLAND    1600   57     100/  5     1028.0S

$$

ANZ835-935-AMZ111-154-330-350-352-354-370-450-454-472-291800-
...C-MAN AND BUOY OBSERVATIONS...

STATION/POSITION TIME  TEMP    WIND        PRES    WAVE   SWELL
                       AIR SEA DIR/SP/G            HT/PER HT/PER/DIR
                 (UTC) (F)     (DEG/KT/KT) (MB)    (FT/S) (FT/S/D)
BUOY 41004       1650   55 68  140/  2/  6 1027.5F   3/ 7   3/ 7
BUOY 41008       1650   53 54   10/  6/  8 1027.9F   3/10   3/100/10
FOLLY BEACH CMAN 1700   49      80/  3/  4 1028.0F
CAPERS NEARSHORE 1600   48      60/  6/  8   N/A
FRIPP NEARSHORE  1600   50      30/  8/ 10 1027.7S


STATION/POSITION TIME  TEMP    WIND        PRES    WAVE   SWELL
                       AIR SEA DIR/SP/G            HT/PER HT/PER/DIR
                 (UTC) (F)     (DEG/KT/KT) (MB)    (FT/S) (FT/S/D)
5E ST. MARYS GA  NOT AVBL
FRYING PAN BUOY  1650   49 66   10/  2/  4 1027.8F   3/ 9   3/ 90/ 9
BUOY 41025       1650   40 71  330/ 10/ 14 1026.7F   5/ 9   5/ 40/ 9
CAPE LOOKOUT NC  1700   39      70/  3/  4 1026.5F
BUOY 41002       1650   56 72  350/ 10/ 16 1026.5F   8/10   7/ 30/10
BUOY 41010       1620   64 75   50/ 12/ 16 1026.5F
ST AUGUSTINE FL  1700   55     350/ 15/ 16 1027.9F


$$


USA.gov is the U.S. government's official web portal to all federal, state and local government web resources and services.